Tabellarische Ansicht des 27.3.2023


Die einzelnen Werte des Tages

Uhrzeit Temperatur Luftdruck Luftfeuchte Wind Hi-Wind Taupunkt THW Index Wind Chill Heat Index Solar- strahlung Regen

00:00

2.4 C

1005.1 hpa

79 %

3.2 km/h aus 118

9.7 km/h aus WNW

-0.8 C

1.9 C

2.1 C

2.3 C

0 W/m

0.00 mm

00:05

2.4 C

1005.1 hpa

79 %

3.2 km/h aus 112

16.1 km/h aus NW

-0.8 C

1.9 C

2.1 C

2.3 C

0 W/m

0.00 mm

00:10

2.4 C

1005.1 hpa

79 %

3.2 km/h aus 116

17.7 km/h aus NW

-0.9 C

1.9 C

2.1 C

2.2 C

0 W/m

0.00 mm

00:15

2.3 C

1005.4 hpa

79 %

3.2 km/h aus 116

14.5 km/h aus WNW

-0.9 C

1.8 C

2.0 C

2.2 C

0 W/m

0.00 mm

00:20

2.3 C

1005.4 hpa

79 %

3.2 km/h aus 115

12.9 km/h aus WNW

-0.9 C

1.8 C

2.0 C

2.2 C

0 W/m

0.00 mm

00:25

2.3 C

1005.4 hpa

79 %

3.2 km/h aus 115

14.5 km/h aus NW

-1.0 C

1.8 C

1.9 C

2.1 C

0 W/m

0.00 mm

00:30

2.3 C

1005.6 hpa

79 %

3.2 km/h aus 117

9.7 km/h aus WNW

-1.0 C

1.8 C

1.9 C

2.1 C

0 W/m

0.00 mm

00:35

2.2 C

1005.6 hpa

79 %

3.2 km/h aus 115

8.0 km/h aus NW

-1.0 C

1.7 C

1.9 C

2.1 C

0 W/m

0.00 mm

00:40

2.2 C

1005.6 hpa

80 %

3.2 km/h aus 116

9.7 km/h aus WNW

-0.9 C

1.7 C

1.8 C

2.0 C

0 W/m

0.00 mm

00:45

2.1 C

1005.9 hpa

80 %

1.6 km/h aus 116

6.4 km/h aus WNW

-1.0 C

1.9 C

2.1 C

1.9 C

0 W/m

0.00 mm

00:50

2.1 C

1005.9 hpa

80 %

4.8 km/h aus 117

16.1 km/h aus WNW

-1.0 C

0.7 C

0.8 C

1.9 C

0 W/m

0.00 mm

00:55

2.0 C

1005.9 hpa

80 %

3.2 km/h aus 112

8.0 km/h aus WNW

-1.1 C

1.4 C

1.6 C

1.8 C

0 W/m

0.00 mm

01:00

1.9 C

1006.2 hpa

80 %

3.2 km/h aus 113

9.7 km/h aus WNW

-1.1 C

1.4 C

1.6 C

1.8 C

0 W/m

0.00 mm

01:05

1.9 C

1006.2 hpa

80 %

1.6 km/h aus 117

4.8 km/h aus WNW

-1.2 C

1.7 C

1.9 C

1.7 C

0 W/m

0.00 mm

01:10

1.8 C

1006.2 hpa

80 %

3.2 km/h aus 117

16.1 km/h aus NW

-1.3 C

1.3 C

1.4 C

1.7 C

0 W/m

0.00 mm

01:15

1.8 C

1006.3 hpa

80 %

1.6 km/h aus 116

8.0 km/h aus WNW

-1.3 C

1.7 C

1.8 C

1.7 C

0 W/m

0.00 mm

01:20

1.8 C

1006.3 hpa

81 %

1.6 km/h aus 116

8.0 km/h aus WNW

-1.1 C

1.6 C

1.8 C

1.6 C

0 W/m

0.00 mm

01:25

1.8 C

1006.3 hpa

81 %

1.6 km/h aus 117

6.4 km/h aus NW

-1.1 C

1.6 C

1.8 C

1.6 C

0 W/m

0.00 mm

01:30

1.7 C

1006.7 hpa

81 %

3.2 km/h aus 116

8.0 km/h aus NW

-1.2 C

1.2 C

1.3 C

1.6 C

0 W/m

0.00 mm

01:35

1.7 C

1006.7 hpa

81 %

1.6 km/h aus 115

11.3 km/h aus WNW

-1.2 C

1.5 C

1.7 C

1.5 C

0 W/m

0.00 mm

01:40

1.7 C

1006.7 hpa

81 %

1.6 km/h aus 115

11.3 km/h aus WNW

-1.2 C

1.5 C

1.7 C

1.5 C

0 W/m

0.00 mm

01:45

1.6 C

1007.0 hpa

81 %

1.6 km/h aus 117

6.4 km/h aus WNW

-1.3 C

1.4 C

1.6 C

1.4 C

0 W/m

0.00 mm

01:50

1.6 C

1007.0 hpa

81 %

1.6 km/h aus 117

16.1 km/h aus NW

-1.4 C

1.4 C

1.6 C

1.4 C

0 W/m

0.00 mm

01:55

1.6 C

1007.0 hpa

81 %

1.6 km/h aus 116

12.9 km/h aus WNW

-1.4 C

1.4 C

1.6 C

1.4 C

0 W/m

0.00 mm

02:00

1.5 C

1007.2 hpa

81 %

3.2 km/h aus 117

17.7 km/h aus WNW

-1.4 C

0.9 C

1.1 C

1.3 C

0 W/m

0.00 mm

02:05

1.4 C

1007.2 hpa

82 %

1.6 km/h aus 117

8.0 km/h aus WNW

-1.3 C

1.3 C

1.4 C

1.3 C

0 W/m

0.00 mm

02:10

1.4 C

1007.2 hpa

82 %

3.2 km/h aus 113

9.7 km/h aus WNW

-1.3 C

0.8 C

1.0 C

1.3 C

0 W/m

0.00 mm

02:15

1.4 C

1007.6 hpa

82 %

1.6 km/h aus 114

6.4 km/h aus WNW

-1.3 C

1.2 C

1.4 C

1.2 C

0 W/m

0.00 mm

02:20

1.4 C

1007.6 hpa

82 %

1.6 km/h aus 117

11.3 km/h aus W

-1.3 C

1.2 C

1.4 C

1.2 C

0 W/m

0.00 mm

02:25

1.3 C

1007.6 hpa

82 %

1.6 km/h aus 117

6.4 km/h aus WNW

-1.4 C

1.2 C

1.3 C

1.2 C

0 W/m

0.00 mm

02:30

1.3 C

1007.8 hpa

82 %

3.2 km/h aus 117

11.3 km/h aus WNW

-1.5 C

0.7 C

0.8 C

1.1 C

0 W/m

0.00 mm

02:35

1.2 C

1007.8 hpa

82 %

3.2 km/h aus 117

6.4 km/h aus WNW

-1.5 C

0.6 C

0.8 C

1.1 C

0 W/m

0.00 mm

02:40

1.2 C

1007.8 hpa

82 %

1.6 km/h aus 117

9.7 km/h aus WNW

-1.6 C

0.9 C

1.2 C

0.9 C

0 W/m

0.00 mm

02:45

1.1 C

1007.9 hpa

82 %

1.6 km/h aus 116

8.0 km/h aus WNW

-1.6 C

0.9 C

1.1 C

0.9 C

0 W/m

0.00 mm

02:50

1.1 C

1007.9 hpa

82 %

1.6 km/h aus 114

8.0 km/h aus WNW

-1.7 C

0.9 C

1.1 C

0.9 C

0 W/m

0.00 mm

02:55

1.1 C

1007.9 hpa

82 %

1.6 km/h aus 114

6.4 km/h aus WNW

-1.7 C

0.9 C

1.1 C

0.9 C

0 W/m

0.00 mm

03:00

1.0 C

1008.2 hpa

83 %

1.6 km/h aus 116

4.8 km/h aus W

-1.6 C

0.8 C

1.0 C

0.8 C

0 W/m

0.00 mm

03:05

0.9 C

1008.2 hpa

83 %

1.6 km/h aus 117

6.4 km/h aus WNW

-1.6 C

0.8 C

0.9 C

0.8 C

0 W/m

0.00 mm

03:10

0.8 C

1008.2 hpa

83 %

1.6 km/h aus 117

6.4 km/h aus WNW

-1.7 C

0.7 C

0.8 C

0.7 C

0 W/m

0.00 mm

03:15

0.8 C

1008.3 hpa

83 %

1.6 km/h aus 117

6.4 km/h aus WNW

-1.7 C

0.7 C

0.8 C

0.7 C

0 W/m

0.00 mm

03:20

0.8 C

1008.3 hpa

83 %

1.6 km/h aus 117

6.4 km/h aus WNW

-1.8 C

0.6 C

0.8 C

0.6 C

0 W/m

0.00 mm

03:25

0.7 C

1008.3 hpa

83 %

1.6 km/h aus 115

4.8 km/h aus WNW

-1.8 C

0.6 C

0.7 C

0.6 C

0 W/m

0.00 mm

03:30

0.7 C

1008.5 hpa

83 %

0.0 km/h aus 114

4.8 km/h aus WNW

-1.9 C

0.5 C

0.7 C

0.5 C

0 W/m

0.00 mm

03:35

0.6 C

1008.5 hpa

83 %

0.0 km/h aus 113

4.8 km/h aus WNW

-1.9 C

0.4 C

0.6 C

0.4 C

0 W/m

0.00 mm

03:40

0.5 C

1008.5 hpa

83 %

0.0 km/h aus 118

1.6 km/h aus W

-2.1 C

0.4 C

0.5 C

0.4 C

0 W/m

0.00 mm

03:45

0.4 C

1008.7 hpa

83 %

0.0 km/h aus 117

3.2 km/h aus W

-2.1 C

0.3 C

0.4 C

0.3 C

0 W/m

0.00 mm

03:50

0.3 C

1008.7 hpa

83 %

0.0 km/h aus 116

3.2 km/h aus WNW

-2.2 C

0.2 C

0.3 C

0.2 C

0 W/m

0.00 mm

03:55

0.3 C

1008.7 hpa

83 %

0.0 km/h aus 116

3.2 km/h aus WNW

-2.2 C

0.2 C

0.3 C

0.2 C

0 W/m

0.00 mm

04:00

0.3 C

1008.8 hpa

83 %

0.0 km/h aus 117

3.2 km/h aus W

-2.3 C

0.2 C

0.3 C

0.2 C

0 W/m

0.00 mm

04:05

0.3 C

1008.8 hpa

84 %

0.0 km/h aus 116

4.8 km/h aus W

-2.1 C

0.2 C

0.3 C

0.2 C

0 W/m

0.00 mm

04:10

0.2 C

1008.8 hpa

84 %

1.6 km/h aus 114

3.2 km/h aus W

-2.2 C

0.1 C

0.2 C

0.1 C

0 W/m

0.00 mm

04:15

0.3 C

1009.1 hpa

84 %

1.6 km/h aus 114

4.8 km/h aus W

-2.1 C

0.2 C

0.3 C

0.2 C

0 W/m

0.00 mm

04:20

0.3 C

1009.1 hpa

84 %

1.6 km/h aus 117

4.8 km/h aus W

-2.1 C

0.2 C

0.3 C

0.2 C

0 W/m

0.00 mm

04:25

0.4 C

1009.1 hpa

84 %

1.6 km/h aus 117

4.8 km/h aus W

-2.0 C

0.3 C

0.4 C

0.3 C

0 W/m

0.00 mm

04:30

0.5 C

1009.3 hpa

85 %

1.6 km/h aus 117

4.8 km/h aus WNW

-1.7 C

0.4 C

0.5 C

0.4 C

0 W/m

0.00 mm

04:35

0.5 C

1009.3 hpa

85 %

1.6 km/h aus 117

4.8 km/h aus W

-1.7 C

0.4 C

0.5 C

0.4 C

0 W/m

0.00 mm

04:40

0.6 C

1009.3 hpa

85 %

3.2 km/h aus 116

11.3 km/h aus WNW

-1.7 C

-0.1 C

0.1 C

0.4 C

0 W/m

0.00 mm

04:45

0.6 C

1009.4 hpa

85 %

1.6 km/h aus 118

9.7 km/h aus W

-1.7 C

0.4 C

0.6 C

0.4 C

0 W/m

0.00 mm

04:50

0.6 C

1009.4 hpa

85 %

3.2 km/h aus 114

6.4 km/h aus W

-1.7 C

-0.1 C

0.1 C

0.4 C

0 W/m

0.00 mm

04:55

0.6 C

1009.4 hpa

85 %

1.6 km/h aus 114

8.0 km/h aus W

-1.7 C

0.4 C

0.6 C

0.4 C

0 W/m

0.00 mm

05:00

0.6 C

1009.5 hpa

85 %

1.6 km/h aus 117

6.4 km/h aus WNW

-1.7 C

0.4 C

0.6 C

0.4 C

0 W/m

0.00 mm

05:05

0.5 C

1009.5 hpa

85 %

1.6 km/h aus 117

8.0 km/h aus WNW

-1.7 C

0.4 C

0.5 C

0.4 C

0 W/m

0.00 mm

05:10

0.5 C

1009.5 hpa

85 %

1.6 km/h aus 117

4.8 km/h aus WNW

-1.7 C

0.4 C

0.5 C

0.4 C

0 W/m

0.00 mm

05:15

0.5 C

1009.8 hpa

85 %

1.6 km/h aus 117

8.0 km/h aus W

-1.7 C

0.4 C

0.5 C

0.4 C

0 W/m

0.00 mm

05:20

0.5 C

1009.8 hpa

85 %

1.6 km/h aus 117

4.8 km/h aus W

-1.7 C

0.4 C

0.5 C

0.4 C

0 W/m

0.00 mm

05:25

0.4 C

1009.8 hpa

85 %

1.6 km/h aus 116

6.4 km/h aus W

-1.8 C

0.3 C

0.4 C

0.3 C

0 W/m

0.00 mm

05:30

0.4 C

1009.9 hpa

85 %

1.6 km/h aus 114

6.4 km/h aus W

-1.8 C

0.3 C

0.4 C

0.3 C

0 W/m

0.00 mm

05:35

0.4 C

1009.9 hpa

85 %

1.6 km/h aus 114

4.8 km/h aus W

-1.8 C

0.3 C

0.4 C

0.3 C

0 W/m

0.00 mm

05:40

0.4 C

1009.9 hpa

85 %

0.0 km/h aus 116

1.6 km/h aus W

-1.8 C

0.3 C

0.4 C

0.3 C

0 W/m

0.00 mm

05:45

0.3 C

1010.0 hpa

85 %

3.2 km/h aus 116

8.0 km/h aus W

-1.9 C

-0.3 C

-0.2 C

0.2 C

0 W/m

0.00 mm

05:50

0.3 C

1010.0 hpa

85 %

1.6 km/h aus 118

12.9 km/h aus W

-1.9 C

0.2 C

0.3 C

0.2 C

0 W/m

0.00 mm

05:55

0.3 C

1010.0 hpa

85 %

1.6 km/h aus 117

11.3 km/h aus WSW

-1.9 C

0.2 C

0.3 C

0.2 C

0 W/m

0.00 mm

06:00

0.3 C

1010.3 hpa

85 %

3.2 km/h aus 114

16.1 km/h aus W

-1.9 C

-0.3 C

-0.2 C

0.2 C

0 W/m

0.00 mm

06:05

0.4 C

1010.3 hpa

85 %

4.8 km/h aus 117

16.1 km/h aus WSW

-1.8 C

-1.2 C

-1.1 C

0.3 C

0 W/m

0.00 mm

06:10

0.4 C

1010.3 hpa

85 %

3.2 km/h aus 114

16.1 km/h aus W

-1.8 C

-0.2 C

-0.1 C

0.3 C

0 W/m

0.00 mm

06:15

0.4 C

1010.4 hpa

85 %

4.8 km/h aus 114

19.3 km/h aus WNW

-1.8 C

-1.1 C

-1.0 C

0.3 C

0 W/m

0.00 mm

06:20

0.5 C

1010.4 hpa

85 %

4.8 km/h aus 116

17.7 km/h aus W

-1.7 C

-1.1 C

-0.9 C

0.4 C

0 W/m

0.00 mm

06:25

0.5 C

1010.4 hpa

85 %

4.8 km/h aus 116

17.7 km/h aus W

-1.7 C

-1.1 C

-0.9 C

0.4 C

0 W/m

0.00 mm

06:30

0.5 C

1010.6 hpa

85 %

3.2 km/h aus 117

14.5 km/h aus W

-1.7 C

-0.1 C

0.0 C

0.4 C

0 W/m

0.00 mm

06:35

0.5 C

1010.6 hpa

85 %

1.6 km/h aus 116

3.2 km/h aus W

-1.7 C

0.4 C

0.5 C

0.4 C

0 W/m

0.00 mm

06:40

0.5 C

1010.6 hpa

85 %

1.6 km/h aus 117

14.5 km/h aus NW

-1.7 C

0.4 C

0.5 C

0.4 C

0 W/m

0.00 mm

06:45

0.4 C

1010.8 hpa

85 %

1.6 km/h aus 117

11.3 km/h aus WNW

-1.8 C

0.3 C

0.4 C

0.3 C

0 W/m

0.00 mm

06:50

0.4 C

1010.8 hpa

85 %

1.6 km/h aus 113

11.3 km/h aus W

-1.8 C

0.3 C

0.4 C

0.3 C

0 W/m

0.00 mm

06:55

0.4 C

1010.8 hpa

85 %

1.6 km/h aus 115

9.7 km/h aus W

-1.8 C

0.3 C

0.4 C

0.3 C

0 W/m

0.00 mm

07:00

0.3 C

1010.9 hpa

85 %

1.6 km/h aus 114

3.2 km/h aus W

-1.9 C

0.2 C

0.3 C

0.2 C

0 W/m

0.00 mm

07:05

0.3 C

1010.9 hpa

85 %

3.2 km/h aus 116

14.5 km/h aus WSW

-1.9 C

-0.3 C

-0.2 C

0.2 C

1 W/m

0.00 mm

07:10

0.3 C

1010.9 hpa

85 %

1.6 km/h aus 115

12.9 km/h aus W

-1.9 C

0.2 C

0.3 C

0.2 C

5 W/m

0.00 mm

07:15

0.3 C

1011.0 hpa

85 %

1.6 km/h aus 115

14.5 km/h aus W

-1.9 C

0.2 C

0.3 C

0.2 C

8 W/m

0.00 mm

07:20

0.3 C

1011.0 hpa

86 %

1.6 km/h aus 117

11.3 km/h aus WSW

-1.8 C

0.2 C

0.3 C

0.2 C

11 W/m

0.00 mm

07:25

0.3 C

1011.0 hpa

86 %

3.2 km/h aus 117

14.5 km/h aus NW

-1.7 C

-0.3 C

-0.2 C

0.2 C

13 W/m

0.00 mm

07:30

0.3 C

1011.4 hpa

86 %

4.8 km/h aus 114

14.5 km/h aus W

-1.7 C

-1.2 C

-1.1 C

0.2 C

17 W/m

0.00 mm

07:35

0.4 C

1011.4 hpa

86 %

4.8 km/h aus 112

17.7 km/h aus WSW

-1.6 C

-1.1 C

-1.0 C

0.3 C

20 W/m

0.00 mm

07:40

0.5 C

1011.4 hpa

86 %

4.8 km/h aus 114

16.1 km/h aus WSW

-1.6 C

-1.1 C

-0.9 C

0.4 C

23 W/m

0.00 mm

07:45

0.6 C

1011.4 hpa

86 %

4.8 km/h aus 117

16.1 km/h aus W

-1.5 C

-1.0 C

-0.9 C

0.4 C

28 W/m

0.00 mm

07:50

0.7 C

1011.4 hpa

86 %

4.8 km/h aus 117

16.1 km/h aus W

-1.4 C

-0.8 C

-0.7 C

0.6 C

52 W/m

0.00 mm

07:55

0.8 C

1011.4 hpa

86 %

3.2 km/h aus 116

14.5 km/h aus W

-1.3 C

0.2 C

0.3 C

0.7 C

57 W/m

0.00 mm

08:00

0.9 C

1011.5 hpa

86 %

6.4 km/h aus 117

20.9 km/h aus W

-1.1 C

-1.3 C

-1.1 C

0.8 C

54 W/m

0.00 mm

08:05

1.1 C

1011.5 hpa

87 %

6.4 km/h aus 116

17.7 km/h aus WSW

-0.9 C

-1.1 C

-0.9 C

0.9 C

59 W/m

0.00 mm

08:10

1.2 C

1011.5 hpa

87 %

3.2 km/h aus 114

19.3 km/h aus WSW

-0.8 C

0.6 C

0.7 C

1.0 C

41 W/m

0.00 mm

08:15

1.2 C

1011.6 hpa

86 %

4.8 km/h aus 112

14.5 km/h aus W

-0.9 C

-0.3 C

-0.1 C

1.1 C

38 W/m

0.00 mm

08:20

1.3 C

1011.6 hpa

86 %

4.8 km/h aus 115

20.9 km/h aus W

-0.8 C

-0.2 C

-0.1 C

1.1 C

45 W/m

0.00 mm

08:25

1.4 C

1011.6 hpa

86 %

6.4 km/h aus 117

20.9 km/h aus W

-0.7 C

-0.7 C

-0.6 C

1.3 C

47 W/m

0.00 mm

08:30

1.5 C

1011.9 hpa

87 %

6.4 km/h aus 117

20.9 km/h aus WSW

-0.4 C

-0.6 C

-0.4 C

1.4 C

52 W/m

0.00 mm

08:35

1.6 C

1011.9 hpa

87 %

3.2 km/h aus 117

17.7 km/h aus WSW

-0.4 C

1.0 C

1.1 C

1.4 C

133 W/m

0.00 mm

08:40

1.7 C

1011.9 hpa

87 %

8.0 km/h aus 116

19.3 km/h aus W

-0.3 C

-0.9 C

-0.8 C

1.6 C

166 W/m

0.00 mm

08:45

1.8 C

1012.0 hpa

87 %

9.7 km/h aus 115

20.9 km/h aus W

-0.1 C

-1.1 C

-1.0 C

1.7 C

179 W/m

0.00 mm

08:50

1.9 C

1012.0 hpa

87 %

12.9 km/h aus 113

25.7 km/h aus W

0.0 C

-1.7 C

-1.6 C

1.8 C

201 W/m

0.00 mm

08:55

2.1 C

1012.0 hpa

86 %

9.7 km/h aus 117

22.5 km/h aus WNW

0.0 C

-0.8 C

-0.7 C

2.0 C

221 W/m

0.00 mm

09:00

2.3 C

1012.1 hpa

86 %

9.7 km/h aus 117

25.7 km/h aus W

0.2 C

-0.6 C

-0.5 C

2.2 C

240 W/m

0.00 mm

09:05

2.4 C

1012.1 hpa

86 %

11.3 km/h aus 118

20.9 km/h aus W

0.3 C

-0.8 C

-0.7 C

2.3 C

254 W/m

0.00 mm

09:10

2.7 C

1012.1 hpa

85 %

8.0 km/h aus 117

19.3 km/h aus WNW

0.4 C

0.3 C

0.4 C

2.6 C

269 W/m

0.00 mm

09:15

2.8 C

1012.5 hpa

85 %

6.4 km/h aus 116

20.9 km/h aus WNW

0.5 C

0.9 C

1.1 C

2.7 C

283 W/m

0.00 mm

09:20

3.0 C

1012.5 hpa

85 %

11.3 km/h aus 114

24.1 km/h aus WSW

0.7 C

-0.1 C

0.0 C

2.9 C

298 W/m

0.00 mm

09:25

3.2 C

1012.5 hpa

84 %

9.7 km/h aus 117

25.7 km/h aus WNW

0.7 C

0.4 C

0.6 C

3.1 C

312 W/m

0.00 mm

09:30

3.3 C

1012.5 hpa

83 %

9.7 km/h aus 116

22.5 km/h aus W

0.7 C

0.7 C

0.8 C

3.2 C

327 W/m

0.00 mm

09:35

3.6 C

1012.5 hpa

82 %

6.4 km/h aus 117

22.5 km/h aus WNW

0.8 C

1.8 C

1.9 C

3.4 C

355 W/m

0.00 mm

09:40

3.8 C

1012.5 hpa

81 %

9.7 km/h aus 117

20.9 km/h aus W

0.8 C

1.1 C

1.3 C

3.6 C

398 W/m

0.00 mm

09:45

3.8 C

1012.8 hpa

80 %

6.4 km/h aus 115

22.5 km/h aus WNW

0.7 C

2.1 C

2.2 C

3.7 C

334 W/m

0.00 mm

09:50

3.7 C

1012.8 hpa

79 %

12.9 km/h aus 113

29.0 km/h aus WNW

0.4 C

0.4 C

0.6 C

3.6 C

256 W/m

0.00 mm

09:55

3.8 C

1012.8 hpa

79 %

12.9 km/h aus 115

22.5 km/h aus S

0.5 C

0.4 C

0.6 C

3.6 C

269 W/m

0.00 mm

10:00

3.7 C

1013.0 hpa

79 %

12.9 km/h aus 117

24.1 km/h aus WSW

0.4 C

0.3 C

0.5 C

3.5 C

227 W/m

0.00 mm

10:05

3.8 C

1013.0 hpa

79 %

9.7 km/h aus 116

25.7 km/h aus W

0.5 C

1.1 C

1.3 C

3.6 C

395 W/m

0.00 mm

10:10

4.2 C

1013.0 hpa

79 %

11.3 km/h aus 118

24.1 km/h aus WSW

0.8 C

1.2 C

1.4 C

4.0 C

428 W/m

0.00 mm

10:15

4.3 C

1013.0 hpa

77 %

9.7 km/h aus 113

22.5 km/h aus WNW

0.6 C

1.7 C

1.9 C

4.1 C

435 W/m

0.00 mm

10:20

4.7 C

1013.0 hpa

77 %

8.0 km/h aus 115

27.4 km/h aus WSW

1.0 C

2.6 C

2.8 C

4.5 C

454 W/m

0.00 mm

10:25

5.0 C

1013.0 hpa

76 %

8.0 km/h aus 116

25.7 km/h aus WNW

1.1 C

2.9 C

3.1 C

4.8 C

454 W/m

0.00 mm

10:30

5.1 C

1013.0 hpa

75 %

9.7 km/h aus 117

24.1 km/h aus W

1.0 C

2.6 C

2.8 C

4.9 C

438 W/m

0.00 mm

10:35

5.1 C

1013.0 hpa

75 %

9.7 km/h aus 117

24.1 km/h aus WNW

1.0 C

2.6 C

2.8 C

4.8 C

340 W/m

0.00 mm

10:40

5.1 C

1013.0 hpa

75 %

12.9 km/h aus 116

22.5 km/h aus W

1.0 C

2.0 C

2.2 C

4.9 C

365 W/m

0.00 mm

10:45

5.1 C

1013.1 hpa

73 %

14.5 km/h aus 113

24.1 km/h aus WSW

0.7 C

1.7 C

1.9 C

4.8 C

146 W/m

0.00 mm

10:50

5.2 C

1013.1 hpa

73 %

11.3 km/h aus 115

24.1 km/h aus WSW

0.8 C

2.4 C

2.7 C

4.9 C

521 W/m

0.00 mm

10:55

4.9 C

1013.1 hpa

74 %

11.3 km/h aus 117

22.5 km/h aus WSW

0.7 C

2.1 C

2.3 C

4.7 C

216 W/m

0.00 mm

11:00

5.1 C

1013.3 hpa

74 %

11.3 km/h aus 117

24.1 km/h aus W

0.8 C

2.2 C

2.4 C

4.8 C

436 W/m

0.00 mm

11:05

5.6 C

1013.3 hpa

74 %

9.7 km/h aus 116

22.5 km/h aus WSW

1.3 C

3.2 C

3.4 C

5.3 C

521 W/m

0.00 mm

11:10

5.4 C

1013.3 hpa

72 %

12.9 km/h aus 114

27.4 km/h aus W

0.8 C

2.4 C

2.7 C

5.2 C

236 W/m

0.00 mm

11:15

5.3 C

1013.3 hpa

73 %

9.7 km/h aus 113

20.9 km/h aus W

0.9 C

2.8 C

3.1 C

5.1 C

243 W/m

0.00 mm

11:20

5.3 C

1013.3 hpa

71 %

12.9 km/h aus 117

25.7 km/h aus WNW

0.4 C

2.1 C

2.4 C

4.9 C

155 W/m

0.00 mm

11:25

5.7 C

1013.3 hpa

70 %

8.0 km/h aus 116

27.4 km/h aus WNW

0.7 C

3.7 C

4.0 C

5.4 C

619 W/m

0.00 mm

11:30

6.3 C

1013.4 hpa

68 %

11.3 km/h aus 117

32.2 km/h aus WNW

0.8 C

3.7 C

4.0 C

5.9 C

485 W/m

0.00 mm

11:35

5.7 C

1013.4 hpa

66 %

16.1 km/h aus 117

35.4 km/h aus WNW

-0.1 C

2.0 C

2.4 C

5.3 C

375 W/m

0.00 mm

11:40

6.2 C

1013.4 hpa

67 %

11.3 km/h aus 114

25.7 km/h aus WNW

0.5 C

3.5 C

3.9 C

5.8 C

626 W/m

0.00 mm

11:45

6.2 C

1013.5 hpa

67 %

8.0 km/h aus 116

20.9 km/h aus WSW

0.5 C

4.1 C

4.5 C

5.8 C

300 W/m

0.00 mm

11:50

5.8 C

1013.5 hpa

67 %

12.9 km/h aus 116

29.0 km/h aus NW

0.2 C

2.7 C

3.1 C

5.4 C

143 W/m

0.00 mm

11:55

5.5 C

1013.5 hpa

68 %

16.1 km/h aus 117

32.2 km/h aus NW

0.1 C

1.8 C

2.2 C

5.2 C

221 W/m

0.00 mm

12:00

5.6 C

1013.6 hpa

68 %

12.9 km/h aus 117

30.6 km/h aus WNW

0.2 C

2.5 C

2.8 C

5.3 C

367 W/m

0.00 mm

12:05

5.9 C

1013.6 hpa

66 %

17.7 km/h aus 114

37.0 km/h aus WNW

0.1 C

2.0 C

2.4 C

5.6 C

670 W/m

0.00 mm

12:10

5.9 C

1013.6 hpa

66 %

14.5 km/h aus 113

29.0 km/h aus W

0.0 C

2.5 C

2.9 C

5.5 C

241 W/m

0.00 mm

12:15

5.5 C

1013.6 hpa

65 %

19.3 km/h aus 115

33.8 km/h aus WNW

-0.6 C

1.3 C

1.7 C

5.1 C

242 W/m

0.00 mm

12:20

5.8 C

1013.6 hpa

64 %

14.5 km/h aus 118

29.0 km/h aus WNW

-0.5 C

2.3 C

2.7 C

5.4 C

262 W/m

0.00 mm

12:25

6.1 C

1013.6 hpa

64 %

14.5 km/h aus 117

27.4 km/h aus W

-0.2 C

2.7 C

3.1 C

5.7 C

694 W/m

0.00 mm

12:30

6.2 C

1013.7 hpa

64 %

12.9 km/h aus 117

27.4 km/h aus NW

-0.1 C

3.1 C

3.5 C

5.8 C

489 W/m

0.00 mm

12:35

6.9 C

1013.7 hpa

63 %

8.0 km/h aus 112

22.5 km/h aus NW

0.3 C

4.9 C

5.3 C

6.5 C

663 W/m

0.00 mm

12:40

7.4 C

1013.7 hpa

63 %

12.9 km/h aus 116

22.5 km/h aus W

0.9 C

4.7 C

5.1 C

7.1 C

659 W/m

0.00 mm

12:45

7.5 C

1013.7 hpa

63 %

12.9 km/h aus 115

25.7 km/h aus WNW

0.9 C

4.7 C

5.1 C

7.1 C

680 W/m

0.00 mm

12:50

6.9 C

1013.7 hpa

63 %

14.5 km/h aus 116

25.7 km/h aus W

0.3 C

3.7 C

4.1 C

6.5 C

310 W/m

0.00 mm

12:55

7.3 C

1013.7 hpa

61 %

16.1 km/h aus 115

27.4 km/h aus W

0.3 C

3.8 C

4.3 C

6.9 C

587 W/m

0.00 mm

13:00

7.4 C

1013.6 hpa

59 %

11.3 km/h aus 114

25.7 km/h aus W

-0.1 C

4.9 C

5.4 C

7.0 C

473 W/m

0.00 mm

13:05

6.8 C

1013.6 hpa

57 %

12.9 km/h aus 115

29.0 km/h aus WNW

-1.1 C

3.8 C

4.3 C

6.3 C

325 W/m

0.00 mm

13:10

6.4 C

1013.6 hpa

59 %

16.1 km/h aus 116

30.6 km/h aus WNW

-1.0 C

2.8 C

3.2 C

6.0 C

187 W/m

0.00 mm

13:15

6.1 C

1014.3 hpa

62 %

27.4 km/h aus 117

56.3 km/h aus WNW

-0.7 C

1.0 C

1.4 C

5.6 C

67 W/m

0.00 mm

13:20

5.1 C

1014.3 hpa

68 %

20.9 km/h aus 117

37.0 km/h aus W

-0.3 C

0.7 C

1.0 C

4.8 C

95 W/m

0.25 mm

13:25

4.2 C

1014.3 hpa

76 %

16.1 km/h aus 116

30.6 km/h aus WNW

0.4 C

0.4 C

0.6 C

4.0 C

230 W/m

0.00 mm

13:30

4.4 C

1014.4 hpa

82 %

16.1 km/h aus 115

25.7 km/h aus W

1.6 C

0.7 C

0.8 C

4.2 C

615 W/m

0.00 mm

13:35

4.8 C

1014.4 hpa

81 %

11.3 km/h aus 115

24.1 km/h aus WNW

1.8 C

1.9 C

2.1 C

4.6 C

643 W/m

0.00 mm

13:40

5.3 C

1014.4 hpa

80 %

9.7 km/h aus 116

22.5 km/h aus WSW

2.1 C

2.9 C

3.1 C

5.1 C

638 W/m

0.00 mm

13:45

5.6 C

1014.1 hpa

79 %

11.3 km/h aus 117

29.0 km/h aus WNW

2.2 C

2.9 C

3.1 C

5.4 C

635 W/m

0.00 mm

13:50

5.7 C

1014.1 hpa

76 %

8.0 km/h aus 117

19.3 km/h aus W

1.8 C

3.8 C

4.0 C

5.5 C

624 W/m

0.00 mm

13:55

6.0 C

1014.1 hpa

76 %

8.0 km/h aus 115

19.3 km/h aus WSW

2.1 C

4.1 C

4.3 C

5.8 C

652 W/m

0.00 mm

14:00

6.9 C

1014.1 hpa

74 %

8.0 km/h aus 114

27.4 km/h aus NW

2.6 C

5.1 C

5.3 C

6.7 C

690 W/m

0.00 mm

14:05

7.0 C

1014.1 hpa

69 %

12.9 km/h aus 117

25.7 km/h aus NW

1.7 C

4.2 C

4.5 C

6.7 C

474 W/m

0.00 mm

14:10

6.5 C

1014.1 hpa

67 %

11.3 km/h aus 116

30.6 km/h aus WNW

0.8 C

3.9 C

4.2 C

6.2 C

162 W/m

0.00 mm

14:15

6.1 C

1014.1 hpa

66 %

17.7 km/h aus 115

35.4 km/h aus WNW

0.2 C

2.2 C

2.6 C

5.7 C

101 W/m

0.00 mm

14:20

5.7 C

1014.1 hpa

66 %

14.5 km/h aus 116

33.8 km/h aus W

-0.2 C

2.2 C

2.6 C

5.3 C

75 W/m

0.00 mm

14:25

5.4 C

1014.1 hpa

69 %

8.0 km/h aus 113

19.3 km/h aus NW

0.2 C

3.3 C

3.7 C

5.1 C

409 W/m

0.00 mm

14:30

6.2 C

1014.2 hpa

71 %

8.0 km/h aus 118

20.9 km/h aus WNW

1.3 C

4.3 C

4.6 C

5.9 C

627 W/m

0.00 mm

14:35

6.4 C

1014.2 hpa

67 %

12.9 km/h aus 117

29.0 km/h aus WNW

0.7 C

3.4 C

3.8 C

6.1 C

648 W/m

0.00 mm

14:40

6.9 C

1014.2 hpa

63 %

14.5 km/h aus 117

35.4 km/h aus NW

0.4 C

3.7 C

4.1 C

6.6 C

651 W/m

0.00 mm

14:45

6.8 C

1014.3 hpa

63 %

22.5 km/h aus 117

38.6 km/h aus W

0.2 C

2.3 C

2.7 C

6.4 C

141 W/m

0.00 mm

14:50

6.0 C

1014.3 hpa

66 %

22.5 km/h aus 113

40.2 km/h aus W

0.1 C

1.5 C

1.9 C

5.6 C

222 W/m

0.00 mm

14:55

5.4 C

1014.3 hpa

69 %

20.9 km/h aus 116

35.4 km/h aus W

0.2 C

1.0 C

1.3 C

5.1 C

258 W/m

0.00 mm

15:00

6.1 C

1014.4 hpa

68 %

16.1 km/h aus 117

32.2 km/h aus NW

0.6 C

2.5 C

2.8 C

5.8 C

681 W/m

0.00 mm

15:05

6.3 C

1014.4 hpa

67 %

17.7 km/h aus 117

30.6 km/h aus WNW

0.6 C

2.4 C

2.8 C

5.9 C

578 W/m

0.00 mm

15:10

6.1 C

1014.4 hpa

66 %

19.3 km/h aus 117

37.0 km/h aus W

0.2 C

2.0 C

2.4 C

5.7 C

501 W/m

0.00 mm

15:15

5.2 C

1014.5 hpa

66 %

22.5 km/h aus 115

35.4 km/h aus WSW

-0.6 C

0.6 C

0.9 C

4.8 C

184 W/m

0.00 mm

15:20

4.8 C

1014.5 hpa

67 %

14.5 km/h aus 115

29.0 km/h aus NW

-0.8 C

1.2 C

1.6 C

4.4 C

143 W/m

0.00 mm

15:25

5.6 C

1014.5 hpa

67 %

12.9 km/h aus 117

24.1 km/h aus W

-0.1 C

2.4 C

2.8 C

5.2 C

578 W/m

0.00 mm

15:30

6.2 C

1014.3 hpa

63 %

12.9 km/h aus 117

25.7 km/h aus W

-0.3 C

3.2 C

3.6 C

5.8 C

574 W/m

0.00 mm

15:35

6.6 C

1014.3 hpa

62 %

16.1 km/h aus 118

29.0 km/h aus WSW

-0.2 C

2.9 C

3.4 C

6.1 C

562 W/m

0.00 mm

15:40

6.6 C

1014.3 hpa

60 %

20.9 km/h aus 115

38.6 km/h aus NW

-0.7 C

2.2 C

2.7 C

6.1 C

561 W/m

0.00 mm

15:45

6.8 C

1014.4 hpa

58 %

20.9 km/h aus 114

35.4 km/h aus WNW

-0.9 C

2.4 C

2.9 C

6.3 C

564 W/m

0.00 mm

15:50

6.8 C

1014.4 hpa

59 %

19.3 km/h aus 117

37.0 km/h aus W

-0.7 C

2.7 C

3.1 C

6.3 C

406 W/m

0.00 mm

15:55

6.6 C

1014.4 hpa

60 %

19.3 km/h aus 116

35.4 km/h aus WNW

-0.7 C

2.4 C

2.9 C

6.1 C

352 W/m

0.00 mm

16:00

6.7 C

1014.6 hpa

63 %

20.9 km/h aus 117

37.0 km/h aus WNW

0.2 C

2.4 C

2.8 C

6.3 C

540 W/m

0.00 mm

16:05

6.8 C

1014.6 hpa

63 %

16.1 km/h aus 114

27.4 km/h aus W

0.2 C

3.2 C

3.6 C

6.4 C

530 W/m

0.00 mm

16:10

6.8 C

1014.6 hpa

61 %

17.7 km/h aus 114

30.6 km/h aus W

-0.2 C

2.9 C

3.3 C

6.3 C

519 W/m

0.00 mm

16:15

7.1 C

1014.6 hpa

60 %

11.3 km/h aus 117

25.7 km/h aus W

-0.2 C

4.4 C

4.9 C

6.6 C

471 W/m

0.00 mm

16:20

7.1 C

1014.6 hpa

60 %

19.3 km/h aus 117

33.8 km/h aus NW

-0.2 C

3.0 C

3.4 C

6.6 C

491 W/m

0.00 mm

16:25

6.9 C

1014.6 hpa

60 %

20.9 km/h aus 117

43.5 km/h aus NW

-0.3 C

2.6 C

3.1 C

6.4 C

314 W/m

0.00 mm

16:30

6.5 C

1014.9 hpa

60 %

25.7 km/h aus 115

46.7 km/h aus WNW

-0.7 C

1.6 C

2.1 C

6.1 C

243 W/m

0.00 mm

16:35

6.0 C

1014.9 hpa

58 %

27.4 km/h aus 115

40.2 km/h aus WNW

-1.6 C

0.9 C

1.4 C

5.5 C

98 W/m

0.00 mm

16:40

5.4 C

1014.9 hpa

61 %

14.5 km/h aus 118

29.0 km/h aus W

-1.5 C

1.9 C

2.4 C

5.0 C

96 W/m

0.00 mm

16:45

5.2 C

1015.1 hpa

63 %

11.3 km/h aus 117

25.7 km/h aus WNW

-1.3 C

2.2 C

2.6 C

4.8 C

111 W/m

0.00 mm

16:50

5.0 C

1015.1 hpa

65 %

17.7 km/h aus 117

29.0 km/h aus WSW

-1.0 C

0.9 C

1.3 C

4.6 C

117 W/m

0.00 mm

16:55

5.3 C

1015.1 hpa

68 %

9.7 km/h aus 115

25.7 km/h aus W

-0.2 C

2.7 C

3.1 C

4.9 C

361 W/m

0.00 mm

17:00

6.1 C

1015.2 hpa

66 %

8.0 km/h aus 114

22.5 km/h aus WNW

0.2 C

4.0 C

4.4 C

5.7 C

461 W/m

0.00 mm

17:05

6.4 C

1015.2 hpa

66 %

16.1 km/h aus 115

30.6 km/h aus W

0.5 C

2.8 C

3.2 C

6.0 C

554 W/m

0.00 mm

17:10

6.7 C

1015.2 hpa

66 %

9.7 km/h aus 116

24.1 km/h aus WSW

0.8 C

4.3 C

4.7 C

6.3 C

420 W/m

0.00 mm

17:15

6.6 C

1015.5 hpa

66 %

9.7 km/h aus 116

27.4 km/h aus W

0.7 C

4.3 C

4.7 C

6.2 C

457 W/m

0.00 mm

17:20

6.6 C

1015.5 hpa

67 %

9.7 km/h aus 117

29.0 km/h aus NW

0.9 C

4.3 C

4.7 C

6.3 C

87 W/m

0.00 mm

17:25

6.5 C

1015.5 hpa

67 %

6.4 km/h aus 116

17.7 km/h aus W

0.8 C

5.0 C

5.3 C

6.2 C

73 W/m

0.00 mm

17:30

6.0 C

1015.5 hpa

67 %

12.9 km/h aus 115

29.0 km/h aus WNW

0.3 C

2.9 C

3.3 C

5.6 C

115 W/m

0.00 mm

17:35

5.8 C

1015.5 hpa

68 %

11.3 km/h aus 115

24.1 km/h aus W

0.3 C

3.0 C

3.3 C

5.4 C

82 W/m

0.00 mm

17:40

5.7 C

1015.5 hpa

69 %

9.7 km/h aus 118

22.5 km/h aus WNW

0.5 C

3.3 C

3.6 C

5.4 C

108 W/m

0.00 mm

17:45

5.7 C

1015.5 hpa

68 %

12.9 km/h aus 117

27.4 km/h aus NW

0.2 C

2.6 C

2.9 C

5.3 C

97 W/m

0.00 mm

17:50

5.6 C

1015.5 hpa

68 %

12.9 km/h aus 115

25.7 km/h aus WNW

0.1 C

2.4 C

2.8 C

5.2 C

55 W/m

0.00 mm

17:55

5.7 C

1015.5 hpa

67 %

9.7 km/h aus 115

25.7 km/h aus WNW

0.0 C

3.1 C

3.5 C

5.3 C

172 W/m

0.00 mm

18:00

6.1 C

1015.6 hpa

66 %

9.7 km/h aus 114

24.1 km/h aus W

0.2 C

3.6 C

4.0 C

5.7 C

280 W/m

0.00 mm

18:05

6.5 C

1015.6 hpa

64 %

8.0 km/h aus 116

22.5 km/h aus WNW

0.2 C

4.5 C

4.9 C

6.1 C

245 W/m

0.00 mm

18:10

6.4 C

1015.6 hpa

65 %

9.7 km/h aus 117

24.1 km/h aus WNW

0.3 C

4.1 C

4.4 C

6.1 C

265 W/m

0.00 mm

18:15

6.2 C

1015.6 hpa

64 %

16.1 km/h aus 116

32.2 km/h aus NW

-0.1 C

2.5 C

2.9 C

5.8 C

219 W/m

0.00 mm

18:20

6.2 C

1015.6 hpa

62 %

14.5 km/h aus 117

32.2 km/h aus NW

-0.5 C

2.8 C

3.2 C

5.8 C

220 W/m

0.00 mm

18:25

6.4 C

1015.6 hpa

59 %

14.5 km/h aus 114

33.8 km/h aus NW

-1.0 C

3.0 C

3.4 C

5.9 C

185 W/m

0.00 mm

18:30

6.3 C

1015.9 hpa

57 %

17.7 km/h aus 115

37.0 km/h aus W

-1.6 C

2.3 C

2.8 C

5.8 C

97 W/m

0.00 mm

18:35

6.2 C

1015.9 hpa

58 %

14.5 km/h aus 117

32.2 km/h aus NW

-1.4 C

2.7 C

3.2 C

5.7 C

121 W/m

0.25 mm

18:40

6.2 C

1015.9 hpa

60 %

11.3 km/h aus 116

25.7 km/h aus NW

-1.0 C

3.4 C

3.9 C

5.8 C

146 W/m

0.00 mm

18:45

6.1 C

1016.1 hpa

59 %

17.7 km/h aus 118

30.6 km/h aus WNW

-1.3 C

2.2 C

2.6 C

5.7 C

138 W/m

0.00 mm

18:50

6.1 C

1016.1 hpa

60 %

12.9 km/h aus 116

32.2 km/h aus WNW

-1.1 C

3.0 C

3.4 C

5.7 C

130 W/m

0.00 mm

18:55

6.1 C

1016.1 hpa

61 %

8.0 km/h aus 114

25.7 km/h aus WNW

-0.9 C

4.0 C

4.4 C

5.7 C

93 W/m

0.00 mm

19:00

5.9 C

1016.2 hpa

63 %

12.9 km/h aus 116

29.0 km/h aus WNW

-0.6 C

2.8 C

3.2 C

5.5 C

80 W/m

0.00 mm

19:05

5.7 C

1016.2 hpa

65 %

8.0 km/h aus 117

20.9 km/h aus WNW

-0.4 C

3.6 C

4.0 C

5.3 C

49 W/m

0.00 mm

19:10

5.5 C

1016.2 hpa

66 %

9.7 km/h aus 115

22.5 km/h aus WNW

-0.4 C

2.9 C

3.3 C

5.1 C

38 W/m

0.00 mm

19:15

5.3 C

1016.4 hpa

67 %

4.8 km/h aus 116

17.7 km/h aus WNW

-0.3 C

4.2 C

4.6 C

4.9 C

38 W/m

0.00 mm

19:20

5.3 C

1016.4 hpa

68 %

3.2 km/h aus 115

9.7 km/h aus WNW

-0.2 C

4.9 C

5.3 C

4.9 C

40 W/m

0.00 mm

19:25

5.2 C

1016.4 hpa

68 %

6.4 km/h aus 115

22.5 km/h aus NW

-0.3 C

3.4 C

3.8 C

4.8 C

35 W/m

0.00 mm

19:30

5.1 C

1016.7 hpa

68 %

3.2 km/h aus 116

19.3 km/h aus WNW

-0.3 C

4.7 C

5.1 C

4.8 C

28 W/m

0.00 mm

19:35

5.1 C

1016.7 hpa

68 %

3.2 km/h aus 116

11.3 km/h aus NW

-0.3 C

4.7 C

5.1 C

4.8 C

17 W/m

0.00 mm

19:40

5.1 C

1016.7 hpa

68 %

4.8 km/h aus 117

11.3 km/h aus WNW

-0.4 C

3.9 C

4.2 C

4.7 C

11 W/m

0.00 mm

19:45

5.0 C

1016.8 hpa

69 %

3.2 km/h aus 117

9.7 km/h aus WNW

-0.2 C

4.6 C

4.9 C

4.7 C

6 W/m

0.00 mm

19:50

4.9 C

1016.8 hpa

69 %

3.2 km/h aus 115

17.7 km/h aus WNW

-0.3 C

4.5 C

4.8 C

4.6 C

2 W/m

0.00 mm

19:55

4.8 C

1016.8 hpa

69 %

1.6 km/h aus 115

8.0 km/h aus WNW

-0.4 C

4.5 C

4.8 C

4.5 C

0 W/m

0.00 mm

20:00

4.7 C

1017.2 hpa

69 %

3.2 km/h aus 116

9.7 km/h aus WNW

-0.5 C

4.3 C

4.6 C

4.4 C

0 W/m

0.00 mm

20:05

4.6 C

1017.2 hpa

69 %

1.6 km/h aus 117

8.0 km/h aus WNW

-0.6 C

4.3 C

4.6 C

4.3 C

0 W/m

0.00 mm

20:10

4.5 C

1017.2 hpa

69 %

6.4 km/h aus 116

19.3 km/h aus WNW

-0.7 C

2.7 C

3.0 C

4.2 C

0 W/m

0.00 mm

20:15

4.5 C

1017.3 hpa

68 %

6.4 km/h aus 117

17.7 km/h aus W

-0.9 C

2.7 C

3.0 C

4.2 C

0 W/m

0.00 mm

20:20

4.5 C

1017.3 hpa

68 %

3.2 km/h aus 116

9.7 km/h aus NW

-0.9 C

4.1 C

4.4 C

4.2 C

0 W/m

0.00 mm

20:25

4.6 C

1017.3 hpa

69 %

12.9 km/h aus 113

30.6 km/h aus WNW

-0.6 C

1.2 C

1.6 C

4.2 C

0 W/m

0.00 mm

20:30

4.4 C

1017.6 hpa

70 %

9.7 km/h aus 116

27.4 km/h aus WNW

-0.6 C

1.8 C

2.1 C

4.1 C

0 W/m

0.00 mm

20:35

4.3 C

1017.6 hpa

71 %

6.4 km/h aus 116

19.3 km/h aus WNW

-0.5 C

2.4 C

2.8 C

3.9 C

0 W/m

0.00 mm

20:40

4.1 C

1017.6 hpa

71 %

3.2 km/h aus 116

17.7 km/h aus W

-0.7 C

3.6 C

3.9 C

3.8 C

0 W/m

0.00 mm

20:45

4.0 C

1017.8 hpa

72 %

8.0 km/h aus 117

19.3 km/h aus WNW

-0.6 C

1.7 C

1.9 C

3.7 C

0 W/m

0.00 mm

20:50

4.0 C

1017.8 hpa

73 %

8.0 km/h aus 117

22.5 km/h aus WNW

-0.4 C

1.7 C

1.9 C

3.7 C

0 W/m

0.00 mm

20:55

3.9 C

1017.8 hpa

73 %

8.0 km/h aus 115

22.5 km/h aus WSW

-0.5 C

1.6 C

1.8 C

3.6 C

0 W/m

0.00 mm

21:00

3.7 C

1017.8 hpa

74 %

6.4 km/h aus 115

20.9 km/h aus W

-0.5 C

1.9 C

2.1 C

3.5 C

0 W/m

0.00 mm

21:05

3.6 C

1017.8 hpa

74 %

3.2 km/h aus 116

17.7 km/h aus W

-0.6 C

3.1 C

3.3 C

3.3 C

0 W/m

0.00 mm

21:10

3.4 C

1017.8 hpa

75 %

4.8 km/h aus 117

17.7 km/h aus W

-0.6 C

2.2 C

2.4 C

3.2 C

0 W/m

0.00 mm

21:15

3.3 C

1017.9 hpa

75 %

4.8 km/h aus 117

16.1 km/h aus W

-0.7 C

2.0 C

2.2 C

3.1 C

0 W/m

0.00 mm

21:20

3.2 C

1017.9 hpa

76 %

6.4 km/h aus 117

17.7 km/h aus WNW

-0.6 C

1.3 C

1.6 C

3.0 C

0 W/m

0.00 mm

21:25

3.2 C

1017.9 hpa

76 %

6.4 km/h aus 116

19.3 km/h aus W

-0.7 C

1.3 C

1.5 C

2.9 C

0 W/m

0.00 mm

21:30

3.1 C

1018.0 hpa

76 %

9.7 km/h aus 115

24.1 km/h aus W

-0.7 C

0.3 C

0.5 C

2.9 C

0 W/m

0.00 mm

21:35

3.1 C

1018.0 hpa

77 %

6.4 km/h aus 114

19.3 km/h aus W

-0.6 C

1.1 C

1.3 C

2.8 C

0 W/m

0.00 mm

21:40

3.0 C

1018.0 hpa

77 %

6.4 km/h aus 116

22.5 km/h aus W

-0.6 C

1.1 C

1.3 C

2.8 C

0 W/m

0.00 mm

21:45

3.0 C

1018.1 hpa

77 %

6.4 km/h aus 117

16.1 km/h aus WSW

-0.6 C

1.1 C

1.3 C

2.8 C

0 W/m

0.00 mm

21:50

2.9 C

1018.1 hpa

78 %

8.0 km/h aus 116

17.7 km/h aus WSW

-0.5 C

0.6 C

0.7 C

2.8 C

0 W/m

0.00 mm

21:55

2.9 C

1018.1 hpa

78 %

4.8 km/h aus 117

16.1 km/h aus SW

-0.5 C

1.7 C

1.8 C

2.8 C

0 W/m

0.00 mm

22:00

2.9 C

1018.1 hpa

78 %

6.4 km/h aus 116

20.9 km/h aus WSW

-0.5 C

1.1 C

1.2 C

2.8 C

0 W/m

0.00 mm

22:05

2.9 C

1018.1 hpa

78 %

8.0 km/h aus 111

22.5 km/h aus WSW

-0.6 C

0.5 C

0.7 C

2.7 C

0 W/m

0.00 mm

22:10

2.8 C

1018.1 hpa

78 %

6.4 km/h aus 115

17.7 km/h aus WSW

-0.6 C

0.9 C

1.1 C

2.7 C

0 W/m

0.00 mm

22:15

2.8 C

1018.2 hpa

78 %

8.0 km/h aus 116

19.3 km/h aus WNW

-0.7 C

0.3 C

0.5 C

2.6 C

0 W/m

0.00 mm

22:20

2.8 C

1018.2 hpa

78 %

9.7 km/h aus 117

24.1 km/h aus W

-0.7 C

-0.1 C

0.1 C

2.6 C

0 W/m

0.00 mm

22:25

2.7 C

1018.2 hpa

79 %

6.4 km/h aus 116

19.3 km/h aus WSW

-0.6 C

0.8 C

0.9 C

2.6 C

0 W/m

0.00 mm

22:30

2.7 C

1018.3 hpa

79 %

6.4 km/h aus 117

17.7 km/h aus WSW

-0.6 C

0.7 C

0.9 C

2.5 C

0 W/m

0.00 mm

22:35

2.7 C

1018.3 hpa

79 %

8.0 km/h aus 116

19.3 km/h aus WSW

-0.6 C

0.2 C

0.4 C

2.5 C

0 W/m

0.00 mm

22:40

2.6 C

1018.3 hpa

79 %

6.4 km/h aus 115

17.7 km/h aus W

-0.7 C

0.7 C

0.8 C

2.4 C

0 W/m

0.00 mm

22:45

2.7 C

1018.3 hpa

79 %

8.0 km/h aus 115

20.9 km/h aus W

-0.6 C

0.2 C

0.4 C

2.5 C

0 W/m

0.00 mm

22:50

2.7 C

1018.3 hpa

79 %

8.0 km/h aus 117

19.3 km/h aus W

-0.6 C

0.2 C

0.4 C

2.5 C

0 W/m

0.00 mm

22:55

2.7 C

1018.3 hpa

79 %

9.7 km/h aus 117

27.4 km/h aus SW

-0.6 C

-0.2 C

-0.1 C

2.5 C

0 W/m

0.00 mm

23:00

2.7 C

1018.3 hpa

79 %

12.9 km/h aus 115

24.1 km/h aus WSW

-0.6 C

-0.9 C

-0.7 C

2.5 C

0 W/m

0.00 mm

23:05

2.7 C

1018.3 hpa

79 %

12.9 km/h aus 118

24.1 km/h aus WSW

-0.6 C

-0.9 C

-0.7 C

2.5 C

0 W/m

0.00 mm

23:10

2.7 C

1018.3 hpa

79 %

12.9 km/h aus 115

24.1 km/h aus WSW

-0.6 C

-0.9 C

-0.7 C

2.5 C

0 W/m

0.00 mm

23:15

2.7 C

1018.3 hpa

78 %

14.5 km/h aus 114

29.0 km/h aus WSW

-0.8 C

-1.2 C

-1.0 C

2.5 C

0 W/m

0.00 mm

23:20

2.7 C

1018.3 hpa

78 %

12.9 km/h aus 115

27.4 km/h aus WSW

-0.8 C

-0.9 C

-0.7 C

2.5 C

0 W/m

0.00 mm

23:25

2.7 C

1018.3 hpa

78 %

12.9 km/h aus 117

27.4 km/h aus W

-0.8 C

-0.9 C

-0.7 C

2.5 C

0 W/m

0.00 mm

23:30

2.7 C

1018.3 hpa

78 %

14.5 km/h aus 116

24.1 km/h aus WSW

-0.8 C

-1.2 C

-1.0 C

2.5 C

0 W/m

0.00 mm

23:35

2.7 C

1018.3 hpa

78 %

12.9 km/h aus 116

25.7 km/h aus WSW

-0.8 C

-0.9 C

-0.7 C

2.5 C

0 W/m

0.00 mm

23:40

2.7 C

1018.3 hpa

78 %

12.9 km/h aus 116

25.7 km/h aus WSW

-0.8 C

-0.9 C

-0.7 C

2.5 C

0 W/m

0.00 mm

23:45

2.7 C

1018.3 hpa

78 %

12.9 km/h aus 115

22.5 km/h aus SW

-0.8 C

-0.9 C

-0.7 C

2.5 C

0 W/m

0.00 mm

23:50

2.6 C

1018.3 hpa

78 %

16.1 km/h aus 114

29.0 km/h aus WSW

-0.8 C

-1.5 C

-1.3 C

2.4 C

0 W/m

0.00 mm

23:55

2.7 C

1018.3 hpa

78 %

11.3 km/h aus 117

22.5 km/h aus WSW

-0.8 C

-0.6 C

-0.4 C

2.5 C

0 W/m

0.00 mm